Terminal Aerodrome Forecast
Issued by NWS

Home | Current Version | Previous Version | Text Only | Print | Product List | Glossary On
Versions: 1 2 3 4 5 6 7 8 9 10 11 12 13 14 15 16 17 18 19 20 21 22 23 24 25 26 27 28 29 30 31 32 33 34 35 36 37 38 39 40 41 42 43 44 45 46 47 48 49
000
FTUS41 KGYX 252326
TAFMHT
TAF
KMHT 252326Z 2600/2624 26010G20KT P6SM FEW060
     FM260400 26008KT P6SM FEW250
     FM261400 27011G18KT P6SM SCT080
     FM262100 27008KT P6SM BKN250=

USA.gov is the U.S. government's official web portal to all federal, state and local government web resources and services.